Temperature
25 23 23 23 23 24 24 24 23 23 23 23 22 22 21 21 21 21 21 21 21 21 21 21 21 20 20 20 20 20 19 19 19 19 19 19 19 18 18 18 18 18 18 18
23 24 25 25 24 24 24 24 23 23 23 23 22 22 22 21 21 21 21 21 21 21 21 21 21 21 20 20 20 20 19 19 19 19 19 19 19 18 18 18 18 18 18 18
25 25 26 26 25 24 24 24 23 23 23 22 22 22 21 21 22 22 21 21 21 21 21 21 21 21 21 20 20 20 20 19 19 19 19 19 19 19 19 18 18 18 18 18
25 25 26 26 25 25 24 24 24 23 22 21 22 21 21 20 20 21 21 21 21 21 21 21 21 21 21 21 20 20 20 20 19 19 19 19 19 19 19 19 18 18 18 18
25 26 26 26 26 25 24 24 23 23 21 21 21 21 20 20 20 20 21 21 22 21 21 22 22 22 21 21 21 20 20 20 19 19 19 19 19 19 19 19 19 18 18 18
25 26 26 26 26 25 24 23 22 20 20 21 21 21 21 19 20 21 21 22 22 22 22 22 22 22 21 21 21 20 20 20 20 19 19 19 19 19 19 19 19 18 18 18
25 26 26 26 25 24 23 22 21 22 20 20 20 20 20 21 21 21 21 21 22 22 22 22 22 21 21 21 21 21 20 20 20 19 19 19 19 19 19 19 19 18 18 18
24 24 25 26 25 24 23 22 21 22 21 20 21 20 21 21 21 22 22 22 22 22 22 22 22 22 22 21 21 21 20 20 20 20 19 19 19 19 19 18 18 18 18 18
23 24 25 25 25 24 23 21 21 19 20 20 20 21 21 21 21 21 21 21 21 21 22 22 22 22 22 22 21 21 21 20 20 20 19 19 19 19 19 18 18 18 18 18
23 24 25 25 25 23 22 20 19 19 20 21 21 21 21 21 21 20 20 20 21 21 21 22 22 22 22 21 21 21 21 20 20 20 20 19 19 19 19 18 18 18 18 18
23 23 24 24 24 24 22 21 18 17 19 20 21 21 21 20 20 20 19 20 21 21 21 22 22 21 21 21 21 21 21 20 20 20 19 19 19 19 19 18 18 18 18 18
21 20 21 23 23 23 23 21 19 21 19 18 19 20 22 20 20 20 20 20 21 21 21 21 21 21 21 21 21 21 21 20 20 20 19 19 19 19 18 18 18 18 18 18
20 20 21 22 22 23 22 21 19 17 17 17 19 21 20 19 19 20 20 21 21 21 21 21 21 21 21 21 21 21 20 20 20 20 20 19 19 19 18 18 18 18 18 17
20 18 20 22 21 22 22 21 19 19 18 18 19 20 20 19 19 19 20 21 21 21 21 21 21 21 21 21 21 21 20 20 20 19 19 19 19 18 18 18 18 18 17 17
20 20 21 21 22 22 22 22 21 20 19 19 20 19 20 19 19 19 20 20 21 21 21 21 21 21 20 20 20 20 20 20 19 19 19 19 19 18 18 18 18 17 17 17
18 19 21 22 22 22 22 22 21 21 20 20 20 20 19 19 19 19 20 20 20 21 21 21 21 20 20 20 20 20 20 19 19 19 19 19 18 18 18 18 17 17 17 17
17 18 19 20 21 22 21 21 21 21 20 20 20 19 18 18 18 19 19 20 20 20 21 21 20 20 20 20 20 19 19 19 19 19 19 18 18 18 18 17 17 17 17 17
16 16 15 17 20 21 20 20 20 20 20 19 19 18 18 18 18 19 19 19 20 20 20 20 20 20 20 20 19 19 19 19 19 18 18 18 17 17 17 17 17 17 16 16
15 16 15 16 18 19 20 20 20 20 19 18 18 18 18 18 18 18 19 19 20 20 20 20 20 20 20 19 19 19 18 18 18 18 18 17 17 17 17 17 17 16 16 16
14 14 15 16 19 19 20 20 20 20 19 19 18 17 17 18 17 17 19 19 19 19 19 19 19 19 19 19 18 18 18 18 18 18 17 17 17 17 16 16 16 16 16 16
16 15 15 16 17 18 19 19 20 20 19 19 19 18 18 17 17 18 19 19 19 19 19 19 19 19 18 18 18 18 17 17 17 17 17 16 16 16 16 16 16 16 15 15
16 15 15 14 17 18 19 19 19 18 19 19 19 19 18 18 18 18 18 19 19 19 18 18 18 18 18 17 17 17 17 17 17 16 16 16 16 16 15 15 15 15 15 15
14 15 14 15 16 17 17 18 19 19 19 19 19 19 19 18 18 18 18 18 18 18 18 18 17 17 17 17 17 17 17 16 16 16 16 16 16 15 15 15 15 15 15 15
14 13 13 14 15 16 17 18 19 19 19 19 19 19 19 18 17 17 17 17 17 17 17 17 17 17 17 17 16 16 16 16 15 15 15 15 15 15 15 15 14 14 14 14
14 13 13 14 15 16 18 18 19 19 19 18 18 18 18 18 17 17 17 17 17 17 17 17 17 16 16 16 16 16 16 15 15 15 15 15 15 14 14 14 14 14 14 14
13 13 14 14 16 15 17 18 18 18 18 18 18 17 17 17 17 17 16 16 16 16 16 16 16 16 16 16 15 15 15 15 15 15 15 14 14 14 14 14 14 14 14 13
Wind_Speed
2 3 4 8 8 4 4 3 1 2 1 2 2 1 3 5 5 6 5 5 6 6 4 3 4 3 3 2 2 2 1 1 1 1 1 0 1 1 1 1 2 2 2 2
4 3 7 5 4 3 4 3 1 1 2 3 2 1 1 4 6 6 7 7 6 5 3 3 3 3 4 3 3 2 2 2 2 1 1 1 1 1 1 1 1 1 2 2
4 5 2 4 3 4 3 5 4 3 2 5 3 3 2 3 2 3 5 6 6 7 6 5 5 4 4 4 4 3 3 2 2 1 1 1 1 1 1 2 1 1 1 1
3 4 2 2 3 6 3 4 6 6 4 1 2 2 5 3 3 4 6 6 6 6 6 5 5 5 5 5 4 3 3 2 2 2 2 2 1 2 2 2 2 2 1 1
4 2 2 2 3 6 4 4 5 5 5 3 2 1 6 1 4 7 7 7 6 6 6 6 6 6 6 5 4 4 3 2 2 2 3 2 2 2 2 2 2 2 1 1
4 2 2 3 1 5 7 8 8 6 5 2 2 2 5 3 6 5 6 6 6 6 6 5 5 4 3 3 3 3 3 2 2 2 2 2 2 2 1 2 2 2 1 1
4 3 1 3 4 4 6 7 4 4 4 4 2 2 6 5 4 5 5 6 6 5 5 4 4 3 3 3 3 3 3 3 2 2 2 2 3 2 2 3 3 2 1 2
2 4 3 1 4 5 5 8 7 5 4 4 2 3 6 5 2 1 1 2 3 3 4 4 4 4 4 4 4 4 4 3 3 3 3 2 3 2 2 3 2 2 2 3
6 5 3 1 1 8 6 4 6 7 3 1 4 5 7 3 4 3 2 3 2 3 3 3 3 3 3 4 4 4 4 3 3 4 3 3 3 3 3 3 2 2 2 2
7 3 3 1 5 6 5 8 6 6 5 1 4 3 4 4 2 1 1 2 2 2 2 3 3 3 3 3 3 3 3 4 3 3 3 3 3 3 3 2 3 2 2 2
5 5 2 3 2 3 4 5 6 5 5 6 2 5 4 6 5 4 3 3 3 4 3 3 2 2 3 2 2 1 1 1 1 1 2 1 2 2 2 2 3 3 3 2
4 5 1 3 3 1 4 5 6 5 3 4 4 6 4 3 3 4 3 3 2 2 2 2 2 2 2 2 1 1 2 2 2 1 1 1 2 1 2 2 3 2 2 2
6 6 3 5 5 3 3 3 4 6 6 5 4 5 3 2 1 1 2 3 2 2 2 2 2 2 1 1 1 1 1 2 1 0 0 1 2 2 2 3 2 2 2 2
6 5 6 8 7 3 2 2 4 6 5 5 6 6 4 2 1 1 1 2 2 2 2 2 1 1 1 1 1 1 2 1 1 0 1 2 3 3 3 2 2 2 2 2
6 5 3 3 2 3 2 2 4 4 6 7 6 6 6 5 4 4 2 2 2 2 2 2 2 2 1 1 2 1 2 1 1 1 2 4 3 2 2 2 2 2 2 3
4 5 3 1 1 2 2 0 3 2 2 3 2 5 4 2 1 0 1 3 2 1 2 2 2 1 2 2 2 2 2 2 1 2 3 3 2 2 2 2 2 2 3 3
3 6 4 2 2 3 2 4 4 3 2 5 5 6 2 1 1 2 2 2 2 2 1 2 2 3 3 3 2 3 2 2 2 3 3 2 2 3 3 3 3 4 4 3
6 5 4 3 3 3 7 2 3 4 1 2 3 2 3 3 1 0 1 1 2 2 3 3 2 2 2 2 1 1 1 1 2 3 3 3 3 3 3 3 4 4 4 4
4 7 5 4 3 3 5 2 2 4 2 2 3 2 2 3 4 3 2 0 2 3 2 2 2 1 1 1 1 0 1 1 2 3 4 4 3 3 4 4 5 4 4 4
6 5 6 5 5 6 6 3 1 4 3 2 4 5 4 4 2 3 2 1 0 1 0 0 0 1 1 1 1 1 1 2 3 4 4 4 4 4 5 5 5 4 4 5
4 5 4 4 4 6 6 4 2 3 6 3 5 6 5 3 4 3 1 1 1 1 1 0 1 1 1 1 1 1 2 3 5 4 4 3 4 5 5 4 3 3 4 4
5 4 4 4 3 6 3 2 5 6 2 3 4 4 4 3 2 2 1 1 2 2 2 1 1 1 1 1 1 1 3 5 4 4 4 4 3 4 3 3 3 3 3 3
4 6 6 7 6 5 3 4 3 3 3 3 4 4 5 3 2 1 1 1 2 2 2 2 2 2 2 1 1 2 4 4 4 4 4 4 4 3 3 3 3 3 2 3
1 2 4 1 4 4 4 2 2 2 2 2 4 4 5 4 3 2 1 1 1 2 2 1 2 2 3 3 2 3 4 3 3 3 3 3 3 3 3 2 3 3 3 3
3 3 3 1 3 3 4 3 2 0 2 2 3 3 4 6 4 3 2 1 0 1 1 1 0 1 3 4 4 4 3 3 3 3 3 3 2 2 3 3 3 3 4 4
3 5 6 6 7 5 5 4 2 2 2 3 4 3 2 4 4 2 2 1 1 1 1 1 1 2 3 3 4 5 4 2 2 2 3 2 2 2 2 2 3 4 4 6
Wind_Direction
89 90 200 212 200 187 162 151 178 256 237 113 149 186 188 180 182 190 195 202 208 218 220 191 189 180 167 169 172 178 170 163 119 105 118 134 290 288 287 263 253 240 225 192
44 273 239 206 183 160 154 143 165 44 53 91 95 324 244 194 202 202 200 206 212 215 212 202 195 190 195 198 199 193 200 191 178 169 164 182 202 256 263 285 272 242 233 209
190 243 201 159 156 154 185 182 178 155 62 52 67 354 287 253 224 210 212 210 207 207 210 209 205 207 206 210 211 213 216 210 206 181 114 66 36 2 353 330 317 283 246 223
239 258 174 163 196 162 218 206 161 138 105 14 68 306 286 255 253 236 227 216 212 215 211 207 207 211 211 212 198 201 214 212 209 175 159 176 195 245 265 279 290 295 275 217
251 226 156 188 214 161 174 111 108 103 100 52 26 128 293 281 249 249 234 223 217 213 209 208 210 212 211 201 191 194 196 208 206 185 187 194 227 252 293 322 323 316 319 273
244 252 189 182 98 126 115 76 62 54 66 10 275 163 289 249 236 246 232 226 220 214 211 210 207 202 207 195 189 181 183 214 203 190 194 200 225 255 299 308 304 301 301 293
331 324 312 126 87 66 98 95 50 13 12 264 277 185 258 266 247 224 229 223 216 208 201 196 191 198 209 200 193 182 185 218 213 200 209 212 221 225 239 260 265 269 278 276
166 287 265 190 166 168 158 139 154 186 216 273 317 234 264 296 280 202 181 191 187 188 184 187 192 193 198 202 194 187 192 210 212 213 223 223 225 228 247 253 255 245 249 259
172 244 291 257 128 132 134 151 154 129 129 46 291 294 310 356 29 42 69 104 161 186 176 178 173 173 177 189 194 191 194 210 218 224 232 233 231 231 247 254 255 251 252 253
155 193 294 304 73 38 120 137 102 115 138 235 294 282 262 282 279 283 160 178 195 177 163 160 163 172 178 186 185 176 187 205 218 220 232 240 238 235 243 250 248 247 254 256
132 145 321 44 111 177 90 86 99 108 139 153 228 272 239 227 221 207 213 207 190 184 181 175 169 165 155 146 143 151 197 191 213 230 236 253 270 265 251 253 258 248 249 243
122 120 163 273 293 194 139 148 144 148 189 165 172 262 302 225 214 192 196 203 192 182 167 143 134 117 118 131 148 184 225 222 231 222 227 264 283 278 268 270 270 256 254 249
127 110 86 354 346 16 76 101 123 120 116 147 167 256 334 25 62 153 179 181 164 149 126 102 98 101 118 179 199 213 248 249 261 237 256 294 296 280 268 271 275 259 249 246
115 103 151 185 213 202 164 126 135 123 140 183 213 237 291 299 261 261 203 183 165 150 142 134 138 144 182 226 240 247 277 260 253 226 243 264 269 267 264 265 265 252 238 234
101 119 153 192 199 161 152 161 151 155 175 180 217 220 244 238 232 231 207 165 136 135 148 164 177 199 221 240 264 269 278 277 261 248 256 258 261 262 262 264 261 252 243 241
82 123 120 63 33 106 82 194 182 186 172 194 215 253 253 226 164 187 191 157 156 192 195 192 197 209 231 238 247 269 269 260 243 245 262 272 274 269 264 260 255 249 250 247
98 125 123 212 299 53 298 248 203 192 194 173 210 242 212 168 159 205 212 187 191 215 209 212 226 229 233 236 232 250 251 262 258 262 270 272 264 264 267 269 260 255 252 249
130 114 121 126 95 208 243 263 170 166 224 224 230 240 197 190 177 62 161 188 224 227 216 221 236 251 253 237 238 247 266 278 278 283 288 282 270 268 272 263 259 258 253 247
136 131 117 123 159 264 291 271 175 173 257 238 188 158 118 108 65 21 355 197 221 229 228 229 244 257 256 246 234 155 325 300 293 290 288 281 275 274 269 262 261 258 251 252
59 91 113 124 148 219 246 281 263 122 274 253 166 159 146 111 98 260 286 317 293 321 323 294 15 46 8 325 3 57 300 290 284 286 284 276 268 267 262 260 265 264 252 254
57 57 105 140 183 249 257 283 95 150 243 225 176 174 162 175 201 212 227 318 12 7 349 24 98 82 311 349 58 26 314 292 289 293 294 285 268 264 262 261 263 269 263 264
155 138 152 138 163 246 278 124 171 219 232 172 172 174 169 170 163 148 136 61 26 19 13 33 65 27 352 18 57 330 297 294 304 302 301 292 276 276 283 276 276 270 259 266
175 181 175 179 206 243 271 232 242 185 181 192 176 178 163 152 136 104 68 45 20 22 28 39 65 18 353 344 322 287 292 304 314 315 306 301 296 286 278 271 273 279 269 264
238 138 127 178 270 279 288 280 291 214 217 212 175 163 152 149 145 131 114 57 20 14 22 40 59 20 334 325 316 288 299 307 312 310 307 303 295 297 296 279 259 255 260 261
204 141 127 217 264 313 314 292 270 77 95 100 108 134 150 143 148 153 149 158 8 356 341 36 64 304 302 313 311 305 304 307 308 309 307 304 296 283 291 290 274 266 257 250
200 177 173 215 218 200 241 261 219 144 141 135 120 99 119 144 152 153 178 209 226 263 292 305 286 277 286 295 300 305 312 311 302 309 309 306 302 299 293 292 312 307 288 286
Height
1500 1506 1511 1508 1507 1508 1512 1518 1521 1518 1512 1515 1518 1518 1517 1518 1519 1520 1520 1521 1521 1522 1524 1525 1525 1526 1526 1526 1526 1527 1528 1528 1528 1528 1528 1528 1528 1528 1528 1528 1528 1528 1528 1529
1506 1508 1501 1500 1503 1506 1511 1518 1519 1516 1512 1515 1520 1520 1517 1517 1518 1518 1519 1520 1520 1521 1523 1523 1524 1525 1526 1526 1526 1527 1528 1528 1528 1528 1529 1529 1529 1529 1529 1528 1528 1528 1528 1528
1506 1502 1497 1500 1504 1509 1512 1516 1517 1518 1516 1517 1521 1525 1520 1517 1517 1517 1518 1519 1519 1520 1521 1522 1523 1524 1525 1526 1526 1527 1528 1528 1529 1529 1529 1529 1529 1529 1529 1528 1528 1528 1528 1528
1501 1497 1497 1501 1503 1506 1515 1507 1510 1515 1524 1533 1528 1542 1525 1519 1517 1516 1516 1517 1517 1518 1520 1521 1522 1523 1524 1525 1526 1527 1527 1528 1529 1529 1529 1529 1528 1528 1528 1528 1528 1527 1527 1527
1501 1496 1497 1501 1500 1501 1507 1504 1510 1517 1526 1534 1533 1540 1532 1521 1520 1515 1513 1514 1515 1517 1518 1519 1521 1522 1523 1524 1525 1526 1527 1527 1528 1528 1528 1528 1528 1528 1528 1528 1527 1527 1526 1526
1496 1494 1494 1496 1496 1498 1503 1511 1518 1526 1534 1546 1537 1541 1537 1525 1517 1512 1510 1511 1513 1515 1516 1518 1520 1521 1522 1523 1524 1525 1526 1526 1527 1527 1528 1528 1528 1527 1527 1527 1526 1526 1525 1525
1502 1496 1493 1493 1500 1503 1506 1524 1543 1546 1554 1550 1536 1538 1533 1514 1509 1508 1508 1509 1511 1513 1514 1516 1518 1519 1521 1522 1523 1524 1525 1525 1526 1526 1527 1527 1527 1527 1526 1526 1525 1525 1524 1524
1513 1514 1497 1494 1498 1505 1509 1518 1542 1552 1555 1549 1537 1538 1523 1509 1506 1506 1507 1508 1509 1511 1513 1515 1517 1518 1519 1521 1522 1523 1524 1524 1525 1525 1526 1526 1526 1526 1525 1525 1524 1524 1524 1523
1512 1511 1494 1492 1493 1498 1510 1518 1519 1537 1544 1550 1543 1532 1517 1508 1507 1507 1507 1508 1509 1510 1512 1514 1515 1517 1518 1520 1521 1522 1523 1524 1524 1525 1525 1525 1525 1524 1524 1523 1523 1522 1522 1522
1499 1508 1498 1494 1494 1499 1503 1512 1526 1538 1551 1555 1544 1537 1530 1515 1511 1509 1509 1509 1509 1510 1512 1513 1515 1516 1517 1519 1520 1521 1522 1523 1523 1523 1523 1523 1523 1523 1523 1522 1522 1521 1521 1521
1494 1507 1505 1500 1503 1506 1509 1516 1526 1537 1539 1551 1553 1541 1514 1512 1509 1509 1509 1509 1509 1510 1511 1512 1514 1515 1517 1518 1519 1520 1521 1522 1522 1522 1522 1522 1522 1521 1521 1521 1520 1520 1519 1519
1496 1508 1516 1507 1500 1498 1502 1510 1520 1531 1540 1543 1546 1538 1508 1507 1506 1507 1508 1509 1509 1510 1511 1512 1514 1515 1516 1517 1518 1519 1520 1520 1521 1521 1521 1521 1520 1520 1519 1519 1518 1518 1517 1517
1495 1509 1524 1521 1515 1506 1507 1510 1514 1523 1535 1544 1544 1532 1508 1506 1507 1507 1508 1508 1509 1510 1511 1513 1514 1515 1516 1517 1518 1518 1519 1519 1520 1520 1520 1519 1519 1518 1517 1517 1516 1516 1515 1515
1489 1508 1518 1525 1520 1510 1510 1510 1513 1519 1532 1538 1533 1523 1512 1509 1508 1507 1507 1508 1509 1510 1511 1512 1514 1514 1515 1516 1517 1517 1517 1518 1518 1518 1517 1517 1517 1516 1516 1515 1514 1514 1513 1513
1490 1507 1508 1507 1505 1505 1506 1508 1510 1513 1518 1524 1520 1518 1511 1507 1507 1507 1506 1507 1508 1509 1510 1511 1512 1513 1514 1515 1515 1515 1515 1516 1516 1515 1515 1515 1514 1514 1513 1513 1512 1512 1511 1510
1494 1505 1506 1508 1505 1505 1508 1507 1507 1509 1511 1513 1514 1513 1505 1505 1505 1506 1506 1506 1507 1508 1509 1511 1511 1512 1513 1513 1513 1513 1513 1513 1513 1513 1513 1512 1512 1511 1511 1510 1510 1509 1509 1508
1499 1505 1514 1518 1510 1508 1516 1508 1507 1508 1507 1509 1513 1509 1504 1505 1505 1505 1506 1506 1507 1508 1509 1510 1511 1511 1511 1511 1512 1512 1511 1511 1511 1510 1510 1509 1509 1508 1508 1507 1507 1506 1506 1505
1500 1508 1518 1522 1517 1527 1514 1501 1502 1505 1505 1504 1504 1504 1503 1503 1505 1506 1507 1507 1508 1508 1509 1509 1510 1510 1510 1510 1510 1510 1510 1509 1509 1508 1507 1506 1506 1505 1505 1504 1503 1503 1502 1502
1495 1504 1518 1527 1527 1522 1509 1501 1501 1505 1506 1502 1502 1502 1503 1504 1504 1506 1507 1507 1508 1508 1509 1509 1509 1509 1509 1509 1508 1508 1508 1507 1506 1505 1504 1503 1502 1502 1501 1500 1500 1499 1499 1498
1498 1500 1514 1524 1525 1527 1510 1498 1497 1501 1508 1500 1500 1501 1502 1503 1508 1508 1506 1506 1507 1508 1508 1508 1508 1508 1508 1507 1507 1506 1505 1505 1503 1502 1501 1500 1499 1498 1498 1497 1497 1496 1495 1494
1506 1510 1516 1521 1522 1516 1501 1497 1498 1512 1508 1498 1498 1499 1501 1502 1504 1505 1505 1506 1506 1506 1507 1507 1507 1506 1506 1506 1505 1504 1503 1502 1501 1500 1498 1497 1497 1496 1495 1494 1493 1493 1492 1491
1507 1512 1517 1521 1522 1517 1497 1497 1501 1500 1495 1495 1496 1498 1500 1501 1502 1503 1504 1505 1505 1505 1505 1506 1505 1505 1505 1504 1504 1502 1501 1500 1499 1497 1496 1495 1494 1493 1492 1491 1490 1489 1488 1488
1502 1503 1506 1508 1509 1499 1496 1495 1495 1494 1494 1494 1495 1497 1498 1500 1501 1503 1504 1504 1504 1504 1504 1504 1504 1503 1503 1502 1501 1500 1499 1498 1496 1495 1493 1492 1491 1490 1489 1488 1487 1486 1485 1484
1498 1498 1500 1502 1498 1495 1494 1493 1493 1493 1493 1493 1494 1496 1497 1498 1500 1502 1503 1503 1504 1504 1503 1503 1502 1501 1501 1500 1499 1498 1497 1495 1494 1492 1491 1489 1488 1487 1486 1485 1484 1483 1482 1480
1495 1496 1499 1500 1496 1494 1493 1493 1493 1493 1493 1493 1494 1495 1496 1498 1499 1500 1501 1502 1503 1503 1503 1502 1501 1500 1499 1498 1497 1496 1494 1492 1491 1490 1488 1487 1486 1485 1484 1483 1482 1481 1479 1478
1492 1494 1496 1496 1492 1493 1492 1492 1493 1492 1492 1493 1494 1495 1497 1497 1498 1499 1500 1501 1501 1501 1501 1500 1499 1498 1497 1496 1495 1493 1491 1490 1488 1487 1485 1484 1483 1482 1480 1479 1479 1478 1477 1475